Location: *
(33.8649°S, 62.1526°E)
Time: 04:39:51
(UTC+00:00)

CZ-2C R/B - Pass Details

Date: 17 January 2021
Orbit: 390 x 584 km, 35.0° (Epoch: 27 February)

Event Time Altitude Azimuth Distance (km) Brightness Sun altitude
Rises 18:21:43 0° 259° (W) 2,662 5.3 -30.6°
Reaches altitude 10° 18:23:55 10° 260° (W) 1,802 4.3 -30.8°
Enters shadow 18:24:25 13° 261° (W) 1,609 4.0 -30.8°
